ISS (ZARYA) 1 25544U 98067A 26104.52178440 .00006465 00000+0 12575-3 0 9997 2 25544 51.6319 255.1813 0006494 311.8952 48.1482 15.48913360561889 POISK 1 36086U 09060A 26104.52178440 .00006465 00000+0 12575-3 0 9995 2 36086 51.6319 255.1813 0006494 311.8952 48.1482 15.48913360561499 CSS (TIANHE) 1 48274U 21035A 26104.14683642 .00015982 00000+0 17868-3 0 9990 2 48274 41.4686 352.1325 0005452 204.5875 155.4705 15.62370155283155 ISS (NAUKA) 1 49044U 21066A 26104.52178440 .00006465 00000+0 12575-3 0 9993 2 49044 51.6319 255.1813 0006494 311.8952 48.1482 15.48913360561532 FREGAT DEB 1 49271U 11037PF 26104.29072133 -.00000041 00000+0 94244-4 0 9997 2 49271 51.6418 193.8365 0948239 141.0354 226.2877 12.40989563217111 CSS (WENTIAN) 1 53239U 22085A 26104.14683642 .00015982 00000+0 17868-3 0 9993 2 53239 41.4686 352.1325 0005452 204.5875 155.4705 15.62370155283130 CSS (MENGTIAN) 1 54216U 22143A 26104.14683642 .00015982 00000+0 17868-3 0 9994 2 54216 41.4686 352.1325 0005452 204.5875 155.4705 15.62370155283675 TIANZHOU-9 1 64786U 25149A 26104.14683642 .00015982 00000+0 17868-3 0 9996 2 64786 41.4686 352.1325 0005452 204.5875 155.4705 15.62370155283678 PROGRESS-MS 32 1 65586U 25204A 26104.52178440 .00006465 00000+0 12575-3 0 9990 2 65586 51.6319 255.1813 0006494 311.8952 48.1482 15.48913360554500 YOTSUBA-KULOVER 1 65941U 98067XN 26103.71422997 .01589453 11783-4 97920-3 0 9997 2 65941 51.6094 232.2957 0012415 317.4064 42.5989 16.17122774 29084 BOTAN 1 65943U 98067XQ 26104.61443799 .01046986 71049-3 84906-3 0 9991 2 65943 51.6130 227.8379 0012142 319.8277 40.1839 16.13520982 29227 HRC MONOBLOCK CAMERA 1 66052U 98067XR 26104.41355159 .00036828 00000+0 35328-3 0 9995 2 66052 51.6254 244.6974 0004025 278.3074 81.7465 15.66249774 27980 HTV-X1 1 66174U 25241A 26104.45066728 .00003762 00000+0 12912-3 0 9994 2 66174 51.6353 260.6301 0007503 311.5683 48.4655 15.32640235 26426 SZ-21 MODULE 1 66515U 25246C 26104.37722752 .00023082 00000+0 17761-3 0 9999 2 66515 41.4754 343.2008 0004464 270.1131 89.9200 15.71436238 23680 SHENZHOU-22 1 66645U 25272A 26104.14683642 .00015982 00000+0 17868-3 0 9999 2 66645 41.4686 352.1325 0005452 204.5875 155.4705 15.62370155283674 SOYUZ-MS 28 1 66664U 25275A 26104.52178440 .00006465 00000+0 12575-3 0 9996 2 66664 51.6319 255.1813 0006494 311.8952 48.1482 15.48913360561775 DUPLEX 1 66906U 98067XS 26104.39105885 .00018455 00000+0 24227-3 0 9991 2 66906 51.6277 250.5582 0003809 288.9660 71.0919 15.58572015 20696 ISS OBJECT XT 1 66907U 98067XT 26103.57707931 .00247531 00000+0 97677-3 0 9999 2 66907 51.6198 245.7992 0009779 304.7260 55.2822 15.85527994 20687 ISS OBJECT XU 1 66908U 98067XU 26104.64056733 .00240018 00000+0 90265-3 0 9995 2 66908 51.6201 240.1417 0010082 308.5704 51.4396 15.86532664 20852 SILVERSAT 1 66909U 98067XV 26103.56967840 .00595033 16365-3 12506-2 0 9992 2 66909 51.6152 243.4532 0013366 312.0887 47.8985 15.98147886 20711 ISS OBJECT XW 1 66910U 98067XW 26104.11113945 .00194299 00000+0 88482-3 0 9996 2 66910 51.6190 243.3576 0009406 301.7076 58.3009 15.82666844 20769 ISS OBJECT XY 1 66912U 98067XY 26104.60079630 .00078181 00000+0 59048-3 0 9991 2 66912 51.6240 244.4322 0006387 300.5289 59.5078 15.71730528 20786 KNACKSAT-2 1 67683U 98067XZ 26104.43290565 .00023109 00000+0 34523-3 0 9991 2 67683 51.6301 253.8399 0011305 320.3591 39.6572 15.54855751 10346 CORAL 1 67684U 98067YA 26104.43875579 .00058776 00000+0 68899-3 0 9997 2 67684 51.6274 252.3771 0014968 312.7512 47.2221 15.60804431 10364 GXIBA-1 1 67685U 98067YB 26104.41604805 .00027527 00000+0 39849-3 0 9991 2 67685 51.6293 253.7277 0013291 317.2775 42.7182 15.55581435 10345 UITMSAT-2 1 67686U 98067YC 26104.13217833 .00034980 00000+0 48021-3 0 9995 2 67686 51.6288 254.8333 0010212 294.3951 65.5975 15.56930080 10300 HMU-SAT2 1 67687U 98067YD 26103.71716603 .00027123 00000+0 39854-3 0 9993 2 67687 51.6299 257.3144 0009617 294.3190 65.6797 15.55230136 10153 LEOPARD 1 67688U 98067YE 26104.59392577 .00029425 00000+0 41436-3 0 9997 2 67688 51.6297 252.6684 0009982 296.6660 63.3309 15.56336227 10299 CREW DRAGON 12 1 67796U 26031A 26104.52178440 .00006465 00000+0 12575-3 0 9994 2 67796 51.6319 255.1813 0006494 311.8952 48.1482 15.48913360561918 PROGRESS-MS 33 1 68319U 26058A 26104.52178440 .00006465 00000+0 12575-3 0 9995 2 68319 51.6319 255.1813 0006494 311.8952 48.1482 15.48913360 3168 CYGNUS NG-24 1 68689U 26079A 26104.52178440 .00006465 00000+0 12575-3 0 9998 2 68689 51.6319 255.1813 0006494 311.8952 48.1482 15.48913360 390